Regional Weather Roundup
Issued by NWS State College, PA

Home | Current Version | Previous Version | Graphics & Text | Print | Product List | Glossary On
Versions: 1 2 3 4 5 6 7 8 9 10 11 12 13 14 15 16 17 18 19 20 21 22 23 24 25 26 27 28 29 30 31 32 33 34 35 36 37 38 39 40 41 42 43 44 45 46 47 48 49 50
000
ASUS41 KCTP 052203
RWRCTP

REGIONAL WEATHER ROUNDUP
NATIONAL WEATHER SERVICE STATE COLLEGE PA
500 PM EST MON DEC 05 2016

Note: "fair" indicates few or no clouds below 12,000 feet with no
significant weather and/or obstructions to visibility.

* = STATION THAT DOES NOT REPORT PRECIPITATION /E.G. RAIN...SNOW...ETC/
    THUNDER OR FOG.

PAZ002>004-007>009-013>016-020>023-029>032-052300-
WESTERN PENNSYLVANIA

CITY           SKY/WX    TMP DP  RH WIND       PRES   REMARKS
ERIE           CLOUDY    41  32  70 SW10G18   30.07R
MEADVILLE      CLOUDY    37  29  72 SW6       30.05F
FRANKLIN*        N/A     36  27  69 W7        30.06F
NEW CASTLE     CLOUDY    38  29  70 SW3       30.09S
BEAVER COUNTY  CLOUDY    37  28  70 W3        30.08S
BUTLER*        CLOUDY    37  27  65 CALM      30.11R
PITTSBURGH INT CLOUDY    41  29  62 W5        30.08R
PITTSBURGH     CLOUDY    40  27  59 CALM      30.07R
INDIANA*       CLOUDY    39  30  70 W5        30.09R
LATROBE        CLOUDY    39  28  65 W6        30.09R
WASHINGTON CO* CLOUDY    37  27  65 CALM      30.08R
$$

PAZ004>006-010>012-017>019-024>028-033>037-041-042-045-046-049>053-052300-
CENTRAL PENNSYLVANIA

CITY           SKY/WX    TMP DP  RH WIND       PRES   REMARKS
BRADFORD       CLOUDY    35  29  78 W5        30.01R
DUBOIS         MOCLDY    36  27  69 W8        30.03S
CLEARFIELD     MOCLDY    38  30  73 W6        30.04S
JOHNSTOWN      CLOUDY    35  28  75 W6        30.02R
ALTOONA        CLOUDY    37  29  72 NW6       30.05R
STATE COLLEGE  MOCLDY    39  28  65 W7        30.05R
WILLIAMSPORT   PTCLDY    43  29  57 SW5       30.03R
SELINSGROVE    CLEAR     42  31  64 NW5       30.06R
FT INDIANTOWN  CLEAR     43  30  59 W7        30.04R
CAPITAL CITY   CLEAR     45  28  51 W7        30.05R
HARRISBURG     PTCLDY    44  31  60 NW7G18    30.05R
YORK           CLOUDY    44  32  62 N5        30.04R
$$

PAZ038>040-043-044-047-048-054-055-060>062-067>071-052300-
EASTERN PENNSYLVANIA

CITY           SKY/WX    TMP DP  RH WIND       PRES   REMARKS
SCRANTON       CLOUDY    43  29  57 W3        30.01R
MOUNT POCONO   MOCLDY    36  29  75 W7        29.97R
ALLENTOWN      PTCLDY    44  32  62 NW6       30.02R
QUAKERTOWN*    CLEAR     41  36  81 CALM      30.02F
READING        CLEAR     43  32  65 NW9       30.02F
LANCASTER      CLEAR     43  33  68 NW3       30.03S
COATESVILLE    CLOUDY    43  36  75 NW5       30.04R
POTTSTOWN      CLEAR     42  33  70 NW5       30.04S
BLUE BELL      CLEAR     41  34  75 CALM      30.01F
DOYLESTOWN     CLEAR     45  35  68 NW5       30.01F
WILLOW GROVE   NOT AVBL
NORTH PHILA    CLEAR     44  33  65 N5        30.04
PHILADELPHIA   PTCLDY    49  32  52 NW8       30.04S
$$




USA.gov is the U.S. government's official web portal to all federal, state and local government web resources and services.